Home > Weather > Shreveport > Past weeks

Flag for USA Weather for the Past 2 Weeks in Shreveport, Louisiana, USA

Now
74 °F

Passing clouds.


Feels Like: 73 °F
Forecast: 67 / 83 °F
Wind: 3 mph from South

Location: Shreveport Regional Airport

Current Time: Apr 30, 2016 at 9:31:42 PM

Latest Report: Apr 30, 2016 at 8:56 PM


Visibility: 10 mi

Pressure: 29.75 "Hg

Humidity: 88%

Dew Point: 70 °F

Location of ShreveportLocation

Historic Weather in Shreveport — Graph

°F

Shreveport Temperature Yesterday

Maximum temperature yesterday: 79 °F (at 10:56 AM)
Minimum temperature yesterday: 72 °F (at 6:56 PM)
Average temperature yesterday: 75 °F

High & Low Weather Summary for the Past Weeks

 TemperatureHumidityPressure
High86 °F (Apr 26, 4:56 PM)100% (Apr 20, 11:56 PM)30.19 "Hg (Apr 20, 11:56 PM)
Low55 °F (Apr 23, 5:56 AM)33% (Apr 23, 2:56 PM)29.63 "Hg (Apr 27, 8:56 AM)
Average71 °F78%29.91 "Hg
* Reported Apr 15 7:56 PM — Apr 30 7:56 PM, Shreveport, Weather by CustomWeather, © 2016

Note: Actual official high and low records may vary slightly from our data, if they occured in-between our weather recording intervals... More about our weather records

Advertising

Shreveport Weather History for the Previous 24 Hours

Scroll right to see more
 ConditionsComfort  
Time TempWeatherWind HumidityBarometerVisibility
7:56 PM
Sat, Apr 30
77 °FPassing clouds.5 mph79%29.72 "Hg10 mi
6:56 PM81 °FPassing clouds.8 mph69%29.70 "Hg10 mi
5:56 PM83 °FScattered clouds.7 mph65%29.68 "Hg10 mi
4:56 PM84 °FScattered clouds.6 mph61%29.69 "Hg10 mi
3:56 PM83 °FPassing clouds.5 mph61%29.69 "Hg10 mi
2:56 PM83 °FScattered clouds.14 mph63%29.70 "Hg10 mi
1:56 PM82 °FPassing clouds.16 mph63%29.69 "Hg10 mi
12:56 PM80 °FPassing clouds.12 mph67%29.69 "Hg10 mi
11:56 AM76 °FPartly sunny.10 mph74%29.70 "Hg10 mi
10:56 AM72 °FBroken clouds.8 mph78%29.74 "Hg10 mi
9:56 AM69 °FMostly cloudy.6 mph87%29.77 "Hg10 mi
8:56 AM69 °FMore clouds than sun.9 mph84%29.71 "Hg10 mi
7:56 AM67 °FMore clouds than sun.8 mph90%29.71 "Hg10 mi
6:56 AM67 °FLight rain. Mostly cloudy.9 mph90%29.72 "Hg10 mi
5:56 AM66 °FStrong thunderstorms. Mostly cloudy.16 mph93%29.70 "Hg7 mi
4:56 AM66 °FStrong thunderstorms. Fog.6 mph96%29.75 "Hg5 mi
3:56 AM65 °FStrong thunderstorms. Fog.6 mph97%29.71 "Hg3 mi
2:56 AM69 °FThunderstorms. Overcast.9 mph96%29.71 "Hg9 mi
1:56 AM73 °FThunderstorms. Fog.5 mph94%29.72 "Hg6 mi
12:56 AM73 °FThunderstorms. Fog.13 mph94%29.68 "Hg6 mi
11:56 PM
Fri, Apr 29
74 °FThunderstorms. Fog.21 mph91%29.64 "Hg3 mi
11:04 PM74 °FThunderstorms. Fog.13 mph94%29.69 "Hg5 mi
10:56 PM74 °FStrong thunderstorms. Fog.13 mph94%29.65 "Hg3 mi
9:56 PM74 °FThunderstorms. Fog.12 mph91%29.66 "Hg5 mi
Weather by CustomWeather, © 2016

See weather overviewHow to use our weather pages